TimeCDT,TemperatureF,Dew PointF,Humidity,Sea Level PressureIn,VisibilityMPH,Wind Direction,Wind SpeedMPH,Gust SpeedMPH,PrecipitationIn,Events,Conditions,WindDirDegrees,DateUTC
12:15 AM,64.4,45.0,49,30.11,10.0,SE,11.5,17.3,N/A,,Overcast,130,2013-05-25 05:15:00
12:35 AM,64.0,44.6,49,30.10,10.0,ESE,12.7,-,N/A,,Overcast,120,2013-05-25 05:35:00
12:55 AM,63.9,44.6,50,30.10,10.0,ESE,13.8,19.6,N/A,Thunderstorm,Overcast,120,2013-05-25 05:55:00
1:15 AM,63.5,44.8,51,30.09,10.0,ESE,15.0,18.4,N/A,,Overcast,120,2013-05-25 06:15:00
1:35 AM,63.1,44.8,51,30.10,10.0,SE,12.7,18.4,N/A,,Overcast,130,2013-05-25 06:35:00
1:55 AM,62.6,45.7,54,30.08,10.0,ESE,12.7,17.3,N/A,Rain,Light Rain,120,2013-05-25 06:55:00
2:15 AM,62.6,45.5,54,30.07,10.0,ESE,13.8,17.3,N/A,,Overcast,120,2013-05-25 07:15:00
2:35 AM,63.1,45.0,51,30.06,10.0,SE,13.8,-,N/A,,Overcast,130,2013-05-25 07:35:00
2:55 AM,63.7,44.8,50,30.05,10.0,SE,16.1,20.7,N/A,Thunderstorm,Overcast,130,2013-05-25 07:55:00
3:15 AM,63.7,44.8,50,30.04,10.0,SE,17.3,21.9,N/A,Thunderstorm,Overcast,140,2013-05-25 08:15:00
3:35 AM,63.7,44.8,50,30.03,10.0,SSE,15.0,26.5,N/A,Rain-Thunderstorm,Light Thunderstorms and Rain,150,2013-05-25 08:35:00
3:55 AM,63.3,45.1,52,30.01,10.0,SSE,17.3,26.5,N/A,Rain-Thunderstorm,Light Thunderstorms and Rain,150,2013-05-25 08:55:00
4:15 AM,61.9,46.9,58,30.01,10.0,SSE,16.1,23.0,N/A,Rain-Thunderstorm,Light Thunderstorms and Rain,150,2013-05-25 09:15:00
4:35 AM,61.2,48.0,62,30.01,10.0,SSE,12.7,26.5,N/A,Rain-Thunderstorm,Light Thunderstorms and Rain,160,2013-05-25 09:35:00
4:55 AM,56.5,52.2,85,30.09,5.0,NW,9.2,16.1,0.16,Rain-Thunderstorm,Heavy Thunderstorms and Rain,310,2013-05-25 09:55:00
5:15 AM,55.9,52.9,89,30.09,7.0,North,5.8,-,0.05,Rain-Thunderstorm,Thunderstorms and Rain,350,2013-05-25 10:15:00
5:35 AM,55.4,53.1,92,30.07,5.0,ENE,10.4,-,0.15,Rain-Thunderstorm,Heavy Thunderstorms and Rain,60,2013-05-25 10:35:00
5:55 AM,55.0,53.1,93,30.04,7.0,East,12.7,-,0.21,Rain-Thunderstorm,Rain,100,2013-05-25 10:55:00
6:15 AM,55.4,53.2,92,30.02,7.0,East,11.5,-,0.05,Rain-Thunderstorm,Rain,100,2013-05-25 11:15:00
6:35 AM,55.4,53.2,92,30.03,10.0,East,10.4,-,0.08,Rain,Light Rain,100,2013-05-25 11:35:00
6:55 AM,55.6,53.6,93,30.08,5.0,West,5.8,-,0.10,Rain,Rain,280,2013-05-25 11:55:00
7:15 AM,55.6,53.6,93,30.05,5.0,East,4.6,-,0.03,Rain,Rain,90,2013-05-25 12:15:00
7:35 AM,55.8,54.0,94,30.05,4.0,NNE,9.2,-,0.05,Rain,Rain,20,2013-05-25 12:35:00
7:55 AM,55.4,53.6,94,30.07,5.0,NNE,9.2,-,0.05,Rain,Light Rain,20,2013-05-25 12:55:00
8:15 AM,55.4,53.8,94,30.08,10.0,ENE,5.8,-,N/A,,Overcast,60,2013-05-25 13:15:00
8:35 AM,55.8,54.0,94,30.07,7.0,East,8.1,-,0.01,Rain,Light Rain,100,2013-05-25 13:35:00
8:55 AM,56.3,54.5,94,30.08,5.0,ESE,6.9,-,0.01,Rain,Light Rain,120,2013-05-25 13:55:00
9:15 AM,56.5,54.9,94,30.10,4.0,SSE,5.8,-,0.04,Rain,Rain,160,2013-05-25 14:15:00
9:35 AM,57.2,55.6,94,30.03,3.0,ESE,17.3,-,0.06,Rain,Light Rain,120,2013-05-25 14:35:00
9:55 AM,58.5,57.0,95,30.03,3.0,ESE,11.5,-,0.06,,Light Drizzle,120,2013-05-25 14:55:00
10:15 AM,59.0,57.6,95,30.01,2.5,NE,10.4,-,N/A,,Overcast,40,2013-05-25 15:15:00
10:35 AM,61.0,59.5,95,30.01,3.0,East,11.5,-,N/A,,Mostly Cloudy,80,2013-05-25 15:35:00
10:55 AM,60.8,59.0,94,30.03,2.0,SE,16.1,20.7,N/A,,Overcast,140,2013-05-25 15:55:00
11:15 AM,63.0,60.6,92,30.03,7.0,SE,16.1,23.0,N/A,,Mostly Cloudy,130,2013-05-25 16:15:00
11:35 AM,63.7,60.6,90,30.04,5.0,ESE,17.3,-,N/A,,Mostly Cloudy,120,2013-05-25 16:35:00
11:55 AM,63.9,60.3,88,30.05,7.0,East,11.5,-,N/A,,Overcast,100,2013-05-25 16:55:00
12:15 PM,64.9,60.8,86,30.05,10.0,ESE,11.5,-,N/A,,Overcast,110,2013-05-25 17:15:00
12:35 PM,64.9,60.4,85,30.05,7.0,East,12.7,-,N/A,,Overcast,100,2013-05-25 17:35:00
12:55 PM,66.2,61.3,84,30.05,10.0,ESE,13.8,-,N/A,,Mostly Cloudy,110,2013-05-25 17:55:00
1:15 PM,67.3,61.9,83,30.04,10.0,SE,9.2,19.6,N/A,,Scattered Clouds,140,2013-05-25 18:15:00
1:35 PM,68.2,62.4,82,30.04,10.0,SE,11.5,-,N/A,,Scattered Clouds,130,2013-05-25 18:35:00
1:55 PM,68.9,62.8,81,30.03,10.0,East,11.5,16.1,N/A,,Scattered Clouds,100,2013-05-25 18:55:00
2:15 PM,69.3,63.1,81,30.03,10.0,East,11.5,-,N/A,,Scattered Clouds,100,2013-05-25 19:15:00
2:35 PM,71.2,64.6,79,30.03,10.0,East,10.4,-,N/A,,Scattered Clouds,100,2013-05-25 19:35:00
2:55 PM,72.5,65.3,78,30.03,10.0,East,11.5,-,N/A,,Scattered Clouds,100,2013-05-25 19:55:00
3:15 PM,73.6,65.8,77,30.03,10.0,East,11.5,-,N/A,,Clear,90,2013-05-25 20:15:00
3:35 PM,74.8,66.7,76,30.02,10.0,ENE,8.1,-,N/A,,Scattered Clouds,60,2013-05-25 20:35:00
3:55 PM,75.0,67.3,77,30.02,10.0,ENE,12.7,-,N/A,,Scattered Clouds,70,2013-05-25 20:55:00
4:15 PM,74.5,66.6,76,30.01,10.0,East,15.0,-,N/A,,Clear,90,2013-05-25 21:15:00
4:35 PM,73.8,66.4,78,30.01,10.0,East,15.0,-,N/A,,Scattered Clouds,90,2013-05-25 21:35:00
4:55 PM,73.8,65.8,76,30.01,10.0,East,15.0,20.7,N/A,,Scattered Clouds,80,2013-05-25 21:55:00
5:15 PM,74.7,66.4,75,30.00,10.0,East,13.8,-,N/A,,Scattered Clouds,80,2013-05-25 22:15:00
5:35 PM,74.7,66.4,75,30.00,10.0,East,13.8,19.6,N/A,,Clear,90,2013-05-25 22:35:00
5:55 PM,74.1,65.8,75,30.00,10.0,East,13.8,-,N/A,,Mostly Cloudy,90,2013-05-25 22:55:00
6:15 PM,73.8,66.0,77,29.98,10.0,ENE,10.4,-,N/A,,Overcast,70,2013-05-25 23:15:00
6:35 PM,73.6,66.2,78,29.98,10.0,ENE,10.4,16.1,N/A,,Overcast,70,2013-05-25 23:35:00
6:55 PM,73.0,66.2,79,29.98,10.0,ENE,10.4,-,N/A,,Overcast,60,2013-05-25 23:55:00
7:15 PM,72.5,66.0,80,29.97,10.0,NE,10.4,-,N/A,,Overcast,50,2013-05-26 00:15:00
7:35 PM,72.5,66.0,80,29.97,10.0,ENE,12.7,-,N/A,,Overcast,70,2013-05-26 00:35:00
7:55 PM,70.9,64.6,80,29.97,10.0,ENE,16.1,-,N/A,,Overcast,60,2013-05-26 00:55:00
8:15 PM,68.9,63.1,82,29.97,10.0,ENE,16.1,20.7,N/A,,Mostly Cloudy,60,2013-05-26 01:15:00
8:35 PM,67.1,61.7,83,29.98,10.0,ENE,17.3,21.9,N/A,,Scattered Clouds,70,2013-05-26 01:35:00
8:55 PM,66.2,61.2,84,29.98,10.0,East,16.1,24.2,N/A,,Mostly Cloudy,80,2013-05-26 01:55:00
9:15 PM,65.1,60.4,85,29.99,10.0,East,18.4,24.2,N/A,,Overcast,80,2013-05-26 02:15:00
9:35 PM,63.9,59.7,86,30.00,10.0,East,17.3,23.0,N/A,,Mostly Cloudy,90,2013-05-26 02:35:00
9:55 PM,63.1,59.0,86,30.01,10.0,East,16.1,23.0,N/A,,Mostly Cloudy,80,2013-05-26 02:55:00
10:15 PM,63.0,59.0,87,30.03,10.0,East,13.8,-,N/A,,Overcast,80,2013-05-26 03:15:00
10:35 PM,62.8,58.8,87,30.04,10.0,East,13.8,21.9,N/A,,Mostly Cloudy,90,2013-05-26 03:35:00
10:55 PM,62.1,58.3,87,30.05,10.0,East,15.0,-,N/A,,Scattered Clouds,80,2013-05-26 03:55:00
11:15 PM,61.0,57.7,89,30.03,10.0,East,13.8,-,N/A,,Clear,90,2013-05-26 04:15:00
11:35 PM,60.8,57.9,90,30.02,10.0,East,11.5,-,N/A,,Clear,100,2013-05-26 04:35:00
11:55 PM,61.0,58.1,90,30.01,10.0,East,11.5,-,N/A,,Scattered Clouds,100,2013-05-26 04:55:00